[[{"header":{"parameterUnit":"m.s-1","parameterCategory":1,"la1":30.2992,"la2":30.254,"lo1":-89.0895,"lo2":-89.0443,"dy":0.0025,"dx":0.0025,"nx":19,"ny":19,"refTime":"2026-04-17T03:00:00:Z","depth":0,"parameterNumber":2,"parameterNumberName":"U-component_of_WINDS"},"data":[0,0,0,0.05,0.0501,0.0596,0.0597,0.0703,0.0704,0,0,0,0,0,0,0,0,0,0,0,0.0463,0.0464,0.0499,0.0502,0.0596,0.0597,0.0703,0.0704,0,0,0,0,0,0,0,0,0,0,0,0.0463,0.0464,0.0464,0.0502,0.0596,0.0597,0.0703,0.0637,0,0,0,0,0,0,0,0,0,0,0.0547,0.0505,0.0463,0.0464,0.0502,0.0596,0.0597,0.0634,0.0641,0.0654,0,0.0665,0,0.0686,0.071,0.0711,0,0,0,0.0508,0.0499,0.0533,0.0464,0.0503,0.0596,0.0555,0.0638,0.0646,0.0664,0.0666,0.0671,0.0688,0.0711,0.0712,0.0769,0.0769,0,0,0.0503,0.0476,0.0527,0.0537,0.0522,0.0552,0.0558,0.0643,0.0644,0.0667,0.0673,0.069,0.0712,0.0712,0.0769,0.0769,0,0,0,0.0483,0.0472,0.0503,0.0532,0.0551,0.0555,0.0562,0.064,0.0653,0.0675,0.0691,0.0712,0.0713,0.077,0.0769,0.0742,0,0,0,0.0481,0.0461,0.0501,0.0485,0.0549,0.0597,0.0557,0.0647,0.0657,0.069,0.0712,0.0714,0.077,0.0769,0.0743,0.0733,0,0,0,0.046,0.0458,0.0469,0.0483,0.0523,0.0596,0.0614,0.065,0.0667,0.0711,0.0715,0.077,0.0769,0.0744,0.0735,0.074,0,0,0,0.043,0.0444,0.0468,0.049,0.0522,0.0578,0.0613,0.0657,0.0691,0.0713,0.077,0.0769,0.0744,0.0736,0.0741,0.074,0.0737,0,0,0.0432,0.0443,0.0458,0.0483,0.0527,0.0566,0.0607,0.0664,0.0693,0.0742,0.0744,0.0742,0.0735,0.074,0.0731,0.0728,0,0,0,0.045,0.046,0.0477,0.0509,0.0553,0.059,0.0644,0.0665,0.0708,0.0713,0.0747,0.0743,0.0748,0.0748,0.0746,0.0751,0.0769,0.0769,0.0769,0.0414,0.045,0.0477,0.0524,0.0554,0.0609,0.0636,0.0674,0.0702,0.0709,0.0724,0.0714,0.0713,0.0712,0.0717,0.0727,0.0727,0.0727,0.0726,0.042,0.044,0.0476,0.0515,0.0552,0.0585,0.0638,0.0657,0.0692,0.0706,0.0712,0.0723,0.0708,0.0714,0.0725,0.0725,0.0725,0.0725,0.0726,0.0401,0.0416,0.0442,0.0491,0.0524,0.0572,0.0604,0.0637,0.0669,0.0674,0.0693,0.0693,0.0698,0.0681,0.0681,0.0681,0.0681,0.0681,0.0681,0.037,0.04,0.0423,0.047,0.0494,0.0531,0.0585,0.061,0.0646,0.0668,0.0668,0.0694,0.07,0.0701,0.068,0.068,0.068,0.0681,0.0681,0.0362,0.0369,0.0405,0.0429,0.0487,0.0518,0.056,0.0607,0.0632,0.0647,0.0672,0.0671,0.0685,0.0687,0.0687,0.0665,0.0665,0.0665,0.0665,0.0345,0.0355,0.0399,0.0435,0.0475,0.0516,0.0555,0.0597,0.0642,0.0659,0.0668,0.0671,0.0672,0.0685,0.0687,0.0688,0.0666,0.0666,0.0666,0.0342,0.0357,0.0384,0.0428,0.0475,0.0515,0.0552,0.0592,0.0644,0.0667,0.0674,0.0674,0.068,0.0681,0.0703,0.0706,0.0708,0,0]},{"header":{"parameterUnit":"m.s-1","parameterCategory":1,"la1":30.2992,"la2":30.254,"lo1":-89.0895,"lo2":-89.0443,"dy":0.0025,"dx":0.0025,"nx":19,"ny":19,"refTime":"2026-04-17T03:00:00:Z","depth":0,"parameterNumber":3,"parameterNumberName":"V-component_of_WINDS"},"data":[0,0,0,4.3999,4.4,4.4024,4.4024,4.4075,4.4075,0,0,0,0,0,0,0,0,0,0,0,4.4005,4.4006,4.3999,4.4,4.4024,4.4024,4.4074,4.4075,0,0,0,0,0,0,0,0,0,0,0,4.4004,4.4005,4.4006,4.4,4.4024,4.4024,4.4074,4.4049,0,0,0,0,0,0,0,0,0,0,4.4022,4.404,4.4005,4.4006,4.4001,4.4024,4.4024,4.4047,4.4051,4.4072,0,4.4096,0,4.4086,4.408,4.408,0,0,0,4.3991,4.4038,4.4032,4.4007,4.4001,4.4024,4.4011,4.4049,4.4053,4.4077,4.4096,4.4097,4.4087,4.408,4.4081,4.4237,4.4239,0,0,4.3989,4.4016,4.403,4.4035,4.4033,4.401,4.4011,4.4051,4.4074,4.4096,4.4098,4.4088,4.4081,4.4081,4.4236,4.4238,0,0,0,4.3992,4.4016,4.4009,4.4034,4.4037,4.4011,4.4013,4.4072,4.4067,4.4099,4.4089,4.4081,4.4082,4.4235,4.4237,4.4319,0,0,0,4.3991,4.4017,4.4009,4.4025,4.4036,4.4055,4.4033,4.4065,4.4068,4.4088,4.4081,4.4083,4.4234,4.4236,4.4314,4.4354,0,0,0,4.3999,4.4018,4.4025,4.4027,4.4038,4.4053,4.4051,4.4065,4.4063,4.408,4.4083,4.4233,4.4236,4.431,4.4346,4.4402,0,0,0,4.4015,4.41,4.4027,4.4117,4.4038,4.4105,4.405,4.4099,4.4124,4.4082,4.4234,4.4237,4.4308,4.4342,4.4397,4.4452,4.4478,0,0,4.4136,4.4115,4.4166,4.4102,4.4188,4.4099,4.4197,4.4195,4.4173,4.4217,4.4221,4.4316,4.4346,4.4401,4.4616,4.4637,0,0,0,4.4213,4.425,4.4267,4.4292,4.4292,4.4295,4.4275,4.4274,4.431,4.4201,4.4351,4.4368,4.4399,4.4424,4.4442,4.4466,4.425,4.4249,4.4249,4.4422,4.4388,4.4469,4.4439,4.4463,4.4441,4.4458,4.4452,4.4412,4.4448,4.4461,4.4595,4.4626,4.4639,4.4665,4.4488,4.4488,4.4489,4.4489,4.4595,4.4641,4.4584,4.4642,4.4606,4.4655,4.4637,4.4606,4.4646,4.4583,4.4609,4.4543,4.4662,4.4683,4.4495,4.4494,4.4493,4.4492,4.4492,4.4727,4.4743,4.474,4.4771,4.4799,4.4764,4.4805,4.4771,4.4739,4.4764,4.4773,4.4772,4.4765,4.4771,4.4772,4.4772,4.4772,4.4773,4.4773,4.4865,4.4859,4.4897,4.4903,4.4913,4.4923,4.4901,4.491,4.4912,4.4884,4.4884,4.4839,4.4681,4.4641,4.478,4.4779,4.4778,4.4777,4.4777,4.5051,4.5003,4.5062,4.5072,4.5076,4.5105,4.5061,4.5082,4.5085,4.5106,4.5056,4.4945,4.492,4.4906,4.4873,4.5064,4.5064,4.5064,4.5064,4.5162,4.5146,4.5197,4.5216,4.523,4.5196,4.5262,4.5246,4.5221,4.5221,4.5188,4.5142,4.5129,4.5112,4.5094,4.5062,4.5296,4.5297,4.5297,4.5274,4.5258,4.5321,4.5295,4.5295,4.5296,4.5357,4.538,4.5343,4.5305,4.5219,4.521,4.5134,4.5111,4.5071,4.5043,4.4984,0,0]}]]